| time (UTC) | temp C | wind direction | speed KPH | gust KPH | rain 1hr cm | rain 24hr cm | rain mn cm | humidity % | barometer mb |
| 20260510103714 | 0 | 284 | 0.0 | 0.0 | 0.00 | 0.00 | 0.00 | 95 | 1015.4 |
| 20260510103212 | 0 | 284 | 0.0 | 0.0 | 0.00 | 0.00 | 0.00 | 95 | 1015.1 |
| 20260510102711 | 0 | 284 | 0.0 | 0.0 | 0.00 | 0.00 | 0.00 | 95 | 1014.9 |
| 20260510102207 | 0 | 285 | 0.0 | 0.0 | 0.00 | 0.00 | 0.00 | 94 | 1015.0 |
| 20260510101705 | 0 | 285 | 0.0 | 0.0 | 0.00 | 0.00 | 0.00 | 94 | 1015.0 |
| 20260510101203 | 1 | 281 | 0.0 | 0.0 | 0.00 | 0.00 | 0.00 | 93 | 1014.8 |
| 20260510100658 | 1 | 280 | 0.0 | 0.0 | 0.00 | 0.00 | 0.00 | 93 | 1014.4 |
| 20260510100157 | 1 | 284 | 0.0 | 0.0 | 0.00 | 0.00 | 0.00 | 93 | 1014.7 |
| 20260510095652 | 1 | 284 | 0.0 | 0.0 | 0.00 | 0.00 | 0.00 | 93 | 1014.6 |
| 20260510095147 | 1 | 284 | 0.0 | 0.0 | 0.00 | 0.00 | 0.00 | 92 | 1014.5 |
| 20260510094646 | 1 | 280 | 0.0 | 0.0 | 0.00 | 0.00 | 0.00 | 91 | 1014.6 |
| 20260510094142 | 1 | 280 | 0.0 | 0.0 | 0.00 | 0.00 | 0.00 | 91 | 1014.7 |
| 20260510093638 | 1 | 284 | 0.0 | 0.0 | 0.00 | 0.00 | 0.00 | 91 | 1014.3 |
| 20260510093135 | 1 | 284 | 0.0 | 0.0 | 0.00 | 0.00 | 0.00 | 91 | 1014.4 |
| 20260510092632 | 1 | 318 | 0.0 | 0.0 | 0.00 | 0.00 | 0.00 | 90 | 1014.6 |
| 20260510092127 | 1 | 318 | 0.0 | 0.0 | 0.00 | 0.00 | 0.00 | 89 | 1014.5 |
| 20260510091623 | 2 | 334 | 0.0 | 0.0 | 0.00 | 0.00 | 0.00 | 88 | 1014.3 |
| 20260510091120 | 2 | 281 | 0.0 | 0.0 | 0.00 | 0.00 | 0.00 | 88 | 1014.4 |
| 20260510090617 | 2 | 280 | 0.0 | 0.0 | 0.00 | 0.00 | 0.00 | 88 | 1014.3 |
| 20260510090113 | 2 | 280 | 0.0 | 0.0 | 0.00 | 0.00 | 0.00 | 87 | 1014.2 |
| 20260510085608 | 2 | 281 | 0.0 | 0.0 | 0.00 | 0.00 | 0.00 | 86 | 1014.1 |
| 20260510085104 | 2 | 280 | 0.0 | 0.0 | 0.00 | 0.00 | 0.00 | 86 | 1013.7 |
| 20260510084600 | 2 | 280 | 0.0 | 0.0 | 0.00 | 0.00 | 0.00 | 85 | 1013.7 |
| 20260510084057 | 2 | 280 | 0.0 | 0.0 | 0.00 | 0.00 | 0.00 | 84 | 1013.7 |
| 20260510083553 | 2 | 280 | 0.0 | 0.0 | 0.00 | 0.00 | 0.00 | 83 | 1013.5 |
| 20260510083050 | 2 | 280 | 0.0 | 0.0 | 0.00 | 0.00 | 0.00 | 82 | 1013.4 |
| 20260510082547 | 3 | 280 | 0.0 | 0.0 | 0.00 | 0.00 | 0.00 | 81 | 1013.6 |
| 20260510082042 | 3 | 281 | 0.0 | 0.0 | 0.00 | 0.00 | 0.00 | 80 | 1013.4 |
| 20260510081537 | 3 | 269 | 0.0 | 0.0 | 0.00 | 0.00 | 0.00 | 79 | 1013.6 |
| 20260510081033 | 3 | 280 | 0.0 | 0.0 | 0.00 | 0.00 | 0.00 | 77 | 1013.3 |
| 20260510080532 | 3 | 302 | 0.0 | 0.0 | 0.00 | 0.00 | 0.00 | 76 | 1013.1 |
| 20260510080030 | 3 | 287 | 0.0 | 0.0 | 0.00 | 0.00 | 0.00 | 75 | 1012.7 |
| 20260510075527 | 4 | 263 | 0.0 | 0.0 | 0.00 | 0.00 | 0.00 | 75 | 1012.6 |
| 20260510075023 | 4 | 267 | 0.0 | 0.0 | 0.00 | 0.00 | 0.00 | 74 | 1012.7 |
| 20260510074521 | 5 | 280 | 0.0 | 0.0 | 0.00 | 0.00 | 0.00 | 72 | 1012.9 |
| 20260510074016 | 5 | 281 | 0.0 | 0.0 | 0.00 | 0.00 | 0.00 | 70 | 1012.6 |
| 20260510073513 | 5 | 293 | 0.0 | 0.0 | 0.00 | 0.00 | 0.00 | 69 | 1012.6 |
| 20260510073010 | 5 | 305 | 0.0 | 0.0 | 0.00 | 0.00 | 0.00 | 68 | 1012.5 |
| 20260510072506 | 5 | 299 | 0.0 | 0.0 | 0.00 | 0.00 | 0.00 | 67 | 1012.3 |
| 20260510072002 | 5 | 314 | 1.6 | 1.6 | 0.00 | 0.00 | 0.00 | 67 | 1012.4 |
| 20260510071458 | 5 | 283 | 0.0 | 0.0 | 0.00 | 0.00 | 0.00 | 67 | 1012.3 |
| 20260510070957 | 5 | 45 | 0.0 | 0.0 | 0.00 | 0.00 | 0.00 | 67 | 1012.3 |
| 20260510070453 | 6 | 330 | 0.0 | 0.0 | 0.00 | 0.00 | 0.00 | 67 | 1012.0 |
| 20260510065949 | 6 | 307 | 0.0 | 0.0 | 0.00 | 0.00 | 0.00 | 67 | 1012.3 |
| 20260510065447 | 6 | 282 | 1.6 | 1.6 | 0.00 | 0.00 | 0.00 | 66 | 1012.1 |
| 20260510064942 | 6 | 312 | 0.0 | 0.0 | 0.00 | 0.00 | 0.00 | 65 | 1012.2 |
| 20260510064440 | 6 | 29 | 1.6 | 3.2 | 0.00 | 0.00 | 0.00 | 65 | 1011.9 |
| 20260510063936 | 6 | 344 | 0.0 | 0.0 | 0.00 | 0.00 | 0.00 | 64 | 1012.0 |
| 20260510063432 | 6 | 5 | 3.2 | 4.8 | 0.00 | 0.00 | 0.00 | 65 | 1011.9 |
| 20260510062930 | 6 | 330 | 0.0 | 1.6 | 0.00 | 0.00 | 0.00 | 64 | 1011.5 |
| 20260510062425 | 6 | 43 | 1.6 | 3.2 | 0.00 | 0.00 | 0.00 | 64 | 1011.6 |
| 20260510061921 | 6 | 23 | 3.2 | 3.2 | 0.00 | 0.00 | 0.00 | 64 | 1011.6 |
| 20260510061418 | 6 | 301 | 0.0 | 0.0 | 0.00 | 0.00 | 0.00 | 65 | 1011.6 |
| 20260510060914 | 6 | 308 | 3.2 | 3.2 | 0.00 | 0.00 | 0.00 | 65 | 1011.8 |
| 20260510060410 | 6 | 313 | 1.6 | 1.6 | 0.00 | 0.00 | 0.00 | 66 | 1011.5 |
| 20260510055907 | 7 | 315 | 0.0 | 0.0 | 0.00 | 0.00 | 0.00 | 65 | 1011.1 |
| 20260510055403 | 7 | 5 | 1.6 | 1.6 | 0.00 | 0.00 | 0.00 | 64 | 1011.2 |
| 20260510054901 | 7 | 302 | 1.6 | 3.2 | 0.00 | 0.00 | 0.00 | 64 | 1011.3 |
| 20260510054356 | 7 | 32 | 1.6 | 1.6 | 0.00 | 0.00 | 0.00 | 64 | 1011.0 |
| 20260510053851 | 7 | 321 | 1.6 | 1.6 | 0.00 | 0.00 | 0.00 | 65 | 1011.2 |
| 20260510053347 | 7 | 319 | 0.0 | 0.0 | 0.00 | 0.00 | 0.00 | 65 | 1011.0 |
| 20260510052844 | 7 | 314 | 0.0 | 0.0 | 0.00 | 0.00 | 0.00 | 64 | 1010.7 |
| 20260510052339 | 8 | 314 | 0.0 | 0.0 | 0.00 | 0.00 | 0.00 | 64 | 1010.7 |
| 20260510051836 | 8 | 23 | 1.6 | 3.2 | 0.00 | 0.00 | 0.00 | 64 | 1010.9 |
| 20260510051332 | 8 | 49 | 1.6 | 3.2 | 0.00 | 0.00 | 0.00 | 64 | 1010.6 |
| 20260510050830 | 8 | 336 | 3.2 | 3.2 | 0.00 | 0.00 | 0.00 | 64 | 1010.7 |
| 20260510050326 | 8 | 49 | 1.6 | 3.2 | 0.00 | 0.00 | 0.00 | 64 | 1010.5 |
| 20260510045823 | 8 | 338 | 1.6 | 1.6 | 0.00 | 0.00 | 0.00 | 64 | 1010.2 |
| 20260510045320 | 8 | 357 | 0.0 | 1.6 | 0.00 | 0.00 | 0.00 | 64 | 1010.2 |
| 20260510044817 | 8 | 9 | 0.0 | 1.6 | 0.00 | 0.00 | 0.00 | 65 | 1010.2 |
| 20260510044314 | 8 | 13 | 4.8 | 4.8 | 0.00 | 0.00 | 0.00 | 67 | 1010.3 |
| 20260510043810 | 8 | 296 | 1.6 | 1.6 | 0.00 | 0.00 | 0.00 | 71 | 1010.2 |
| 20260510043306 | 8 | 311 | 0.0 | 0.0 | 0.00 | 0.00 | 0.00 | 72 | 1009.8 |
| 20260510042804 | 8 | 322 | 0.0 | 0.0 | 0.00 | 0.00 | 0.00 | 71 | 1009.7 |
| 20260510042259 | 8 | 311 | 0.0 | 0.0 | 0.00 | 0.00 | 0.00 | 72 | 1009.6 |
| 20260510041756 | 8 | 305 | 0.0 | 0.0 | 0.00 | 0.00 | 0.00 | 73 | 1009.6 |
| 20260510041253 | 7 | 311 | 0.0 | 0.0 | 0.00 | 0.00 | 0.00 | 75 | 1009.4 |
| 20260510040750 | 7 | 323 | 0.0 | 0.0 | 0.00 | 0.00 | 0.00 | 77 | 1009.4 |
| 20260510040242 | 8 | 303 | 0.0 | 0.0 | 0.00 | 0.00 | 0.00 | 76 | 1009.3 |
| 20260510035737 | 8 | 338 | 0.0 | 0.0 | 0.00 | 0.18 | 0.18 | 75 | 1009.3 |
| 20260510035233 | 8 | 338 | 0.0 | 0.0 | 0.00 | 0.18 | 0.18 | 73 | 1009.1 |
| 20260510034729 | 8 | 343 | 0.0 | 0.0 | 0.00 | 0.18 | 0.18 | 73 | 1009.0 |
| 20260510034228 | 8 | 343 | 0.0 | 0.0 | 0.00 | 0.18 | 0.18 | 70 | 1008.8 |
| 20260510033723 | 9 | 343 | 0.0 | 0.0 | 0.00 | 0.18 | 0.18 | 69 | 1008.8 |
| 20260510033221 | 10 | 348 | 0.0 | 0.0 | 0.00 | 0.18 | 0.18 | 68 | 1008.8 |
| 20260510032717 | 10 | 356 | 0.0 | 0.0 | 0.00 | 0.18 | 0.18 | 68 | 1008.6 |
| 20260510032213 | 10 | 342 | 0.0 | 0.0 | 0.00 | 0.18 | 0.18 | 69 | 1008.5 |
| 20260510031708 | 10 | 294 | 0.0 | 0.0 | 0.00 | 0.18 | 0.18 | 68 | 1008.4 |
| 20260510031205 | 10 | 345 | 0.0 | 0.0 | 0.00 | 0.18 | 0.18 | 67 | 1008.7 |
| 20260510030704 | 10 | 332 | 0.0 | 0.0 | 0.00 | 0.18 | 0.18 | 66 | 1008.2 |
| 20260510030202 | 10 | 336 | 0.0 | 0.0 | 0.00 | 0.18 | 0.18 | 65 | 1007.9 |
| 20260510025659 | 11 | 27 | 0.0 | 0.0 | 0.00 | 0.18 | 0.18 | 65 | 1008.1 |
| 20260510025156 | 11 | 31 | 0.0 | 0.0 | 0.00 | 0.18 | 0.18 | 62 | 1008.0 |
| 20260510024653 | 11 | 350 | 0.0 | 0.0 | 0.00 | 0.18 | 0.18 | 61 | 1008.0 |
| 20260510024150 | 12 | 342 | 0.0 | 0.0 | 0.00 | 0.18 | 0.18 | 60 | 1007.7 |
| 20260510023645 | 12 | 341 | 0.0 | 0.0 | 0.00 | 0.18 | 0.18 | 60 | 1007.8 |
| 20260510023143 | 12 | 347 | 0.0 | 1.6 | 0.00 | 0.18 | 0.18 | 58 | 1007.6 |
| 20260510022637 | 12 | 349 | 1.6 | 1.6 | 0.00 | 0.18 | 0.18 | 57 | 1007.8 |
| 20260510022132 | 13 | 26 | 1.6 | 3.2 | 0.00 | 0.18 | 0.18 | 56 | 1007.6 |
| 20260510021628 | 13 | 292 | 1.6 | 3.2 | 0.00 | 0.18 | 0.18 | 52 | 1007.4 |
| 20260510021126 | 13 | 71 | 1.6 | 3.2 | 0.00 | 0.18 | 0.18 | 52 | 1007.1 |
| 20260510020620 | 13 | 320 | 4.8 | 8.0 | 0.00 | 0.18 | 0.18 | 52 | 1007.1 |
| 20260510020115 | 13 | 291 | 3.2 | 3.2 | 0.00 | 0.18 | 0.18 | 51 | 1007.1 |
| 20260510015612 | 14 | 280 | 1.6 | 1.6 | 0.00 | 0.18 | 0.18 | 51 | 1006.6 |
| 20260510015109 | 14 | 341 | 8.0 | 9.7 | 0.00 | 0.18 | 0.18 | 50 | 1006.7 |
| 20260510014604 | 14 | 270 | 3.2 | 3.2 | 0.00 | 0.18 | 0.18 | 51 | 1006.4 |
| 20260510014102 | 14 | 319 | 3.2 | 4.8 | 0.00 | 0.18 | 0.18 | 51 | 1006.5 |
| 20260510013556 | 14 | 313 | 3.2 | 4.8 | 0.00 | 0.18 | 0.18 | 51 | 1006.2 |
| 20260510013052 | 14 | 328 | 8.0 | 11.3 | 0.00 | 0.18 | 0.18 | 51 | 1005.9 |
| 20260510012551 | 14 | 294 | 1.6 | 1.6 | 0.00 | 0.18 | 0.18 | 51 | 1006.0 |
| 20260510012048 | 14 | 294 | 1.6 | 1.6 | 0.00 | 0.18 | 0.18 | 51 | 1005.7 |
| 20260510011548 | 14 | 273 | 1.6 | 1.6 | 0.00 | 0.18 | 0.18 | 50 | 1005.7 |
| 20260510011044 | 15 | 327 | 8.0 | 12.9 | 0.00 | 0.18 | 0.18 | 50 | 1005.3 |
| 20260510010541 | 15 | 256 | 1.6 | 1.6 | 0.00 | 0.18 | 0.18 | 50 | 1005.5 |
| 20260510010038 | 15 | 303 | 4.8 | 8.0 | 0.00 | 0.18 | 0.18 | 49 | 1005.3 |
| 20260510005533 | 15 | 311 | 1.6 | 1.6 | 0.00 | 0.18 | 0.18 | 49 | 1005.2 |
| 20260510005031 | 15 | 267 | 3.2 | 8.0 | 0.00 | 0.18 | 0.18 | 48 | 1005.2 |
| 20260510004529 | 15 | 34 | 6.4 | 8.0 | 0.00 | 0.18 | 0.18 | 48 | 1004.9 |
| 20260510004026 | 15 | 328 | 8.0 | 11.3 | 0.00 | 0.18 | 0.18 | 47 | 1004.9 |
| 20260510003517 | 15 | 17 | 8.0 | 11.3 | 0.00 | 0.18 | 0.18 | 47 | 1004.7 |
| 20260510003013 | 16 | 297 | 11.3 | 16.1 | 0.00 | 0.18 | 0.18 | 45 | 1004.7 |
| 20260510002508 | 16 | 311 | 3.2 | 3.2 | 0.00 | 0.18 | 0.18 | 44 | 1004.5 |
| 20260510002005 | 16 | 330 | 6.4 | 9.7 | 0.00 | 0.18 | 0.18 | 43 | 1004.3 |
| 20260510001503 | 16 | 285 | 3.2 | 4.8 | 0.00 | 0.18 | 0.18 | 43 | 1004.1 |
| 20260510001001 | 16 | 299 | 1.6 | 3.2 | 0.00 | 0.18 | 0.18 | 42 | 1003.9 |
| 20260510000456 | 17 | 278 | 11.3 | 14.5 | 0.00 | 0.18 | 0.18 | 42 | 1003.7 |
| 20260509235953 | 17 | 254 | 3.2 | 4.8 | 0.00 | 0.18 | 0.18 | 43 | 1003.6 |
| 20260509235450 | 17 | 329 | 4.8 | 8.0 | 0.00 | 0.18 | 0.18 | 42 | 1003.5 |
| 20260509234946 | 17 | 211 | 6.4 | 9.7 | 0.00 | 0.18 | 0.18 | 42 | 1003.5 |
| 20260509234443 | 17 | 275 | 4.8 | 4.8 | 0.00 | 0.18 | 0.18 | 42 | 1003.5 |
| 20260509233941 | 17 | 268 | 6.4 | 8.0 | 0.00 | 0.18 | 0.18 | 42 | 1003.2 |
| 20260509233438 | 17 | 206 | 12.9 | 16.1 | 0.00 | 0.18 | 0.18 | 41 | 1003.2 |
| 20260509232934 | 17 | 251 | 1.6 | 4.8 | 0.00 | 0.18 | 0.18 | 41 | 1003.2 |
| 20260509232432 | 18 | 240 | 6.4 | 11.3 | 0.00 | 0.18 | 0.18 | 42 | 1002.9 |
| 20260509231927 | 18 | 270 | 3.2 | 8.0 | 0.00 | 0.18 | 0.18 | 41 | 1003.0 |
| 20260509231424 | 18 | 324 | 14.5 | 20.9 | 0.00 | 0.18 | 0.18 | 40 | 1002.8 |
| 20260509230923 | 18 | 258 | 11.3 | 16.1 | 0.00 | 0.18 | 0.18 | 40 | 1002.7 |
| 20260509230419 | 18 | 135 | 3.2 | 4.8 | 0.00 | 0.18 | 0.18 | 40 | 1002.8 |
| 20260509225915 | 18 | 289 | 11.3 | 17.7 | 0.00 | 0.18 | 0.18 | 39 | 1002.8 |
| 20260509225412 | 18 | 222 | 11.3 | 14.5 | 0.00 | 0.18 | 0.18 | 39 | 1002.7 |
| 20260509224908 | 18 | 258 | 8.0 | 9.7 | 0.00 | 0.18 | 0.18 | 39 | 1002.8 |
| 20260509224403 | 18 | 264 | 4.8 | 11.3 | 0.00 | 0.18 | 0.18 | 39 | 1002.9 |
| 20260509223901 | 18 | 259 | 4.8 | 8.0 | 0.00 | 0.18 | 0.18 | 39 | 1002.7 |
| 20260509223357 | 19 | 320 | 3.2 | 8.0 | 0.00 | 0.18 | 0.18 | 39 | 1002.5 |
| 20260509222854 | 18 | 297 | 6.4 | 11.3 | 0.00 | 0.18 | 0.18 | 39 | 1002.6 |
| 20260509222349 | 18 | 329 | 9.7 | 12.9 | 0.00 | 0.18 | 0.18 | 38 | 1002.6 |
| 20260509221844 | 18 | 253 | 8.0 | 12.9 | 0.00 | 0.18 | 0.18 | 38 | 1002.5 |
| 20260509221342 | 18 | 293 | 0.0 | 0.0 | 0.00 | 0.18 | 0.18 | 39 | 1002.6 |
| 20260509220837 | 18 | 274 | 3.2 | 4.8 | 0.00 | 0.18 | 0.18 | 41 | 1002.4 |
| 20260509220334 | 18 | 251 | 16.1 | 22.5 | 0.00 | 0.18 | 0.18 | 40 | 1002.3 |
| 20260509215829 | 19 | 312 | 4.8 | 8.0 | 0.00 | 0.18 | 0.18 | 41 | 1002.2 |
| 20260509215326 | 19 | 154 | 6.4 | 9.7 | 0.00 | 0.18 | 0.18 | 40 | 1002.3 |
| 20260509214823 | 19 | 238 | 9.7 | 12.9 | 0.00 | 0.18 | 0.18 | 40 | 1001.9 |
| 20260509214320 | 18 | 319 | 14.5 | 27.4 | 0.00 | 0.18 | 0.18 | 40 | 1001.9 |
| 20260509213817 | 19 | 295 | 12.9 | 16.1 | 0.00 | 0.18 | 0.18 | 40 | 1001.9 |
| 20260509213312 | 19 | 240 | 11.3 | 14.5 | 0.00 | 0.18 | 0.18 | 39 | 1001.8 |
| 20260509212810 | 19 | 293 | 14.5 | 16.1 | 0.00 | 0.18 | 0.18 | 40 | 1001.9 |
| 20260509212308 | 20 | 297 | 3.2 | 9.7 | 0.00 | 0.18 | 0.18 | 39 | 1001.8 |
| 20260509211803 | 20 | 263 | 16.1 | 20.9 | 0.00 | 0.18 | 0.18 | 40 | 1001.8 |
| 20260509211259 | 19 | 265 | 11.3 | 16.1 | 0.00 | 0.18 | 0.18 | 40 | 1001.6 |
| 20260509210756 | 19 | 271 | 14.5 | 17.7 | 0.00 | 0.18 | 0.18 | 41 | 1001.5 |
| 20260509210254 | 19 | 341 | 20.9 | 29.0 | 0.00 | 0.18 | 0.18 | 41 | 1001.5 |
| 20260509205753 | 19 | 223 | 12.9 | 17.7 | 0.00 | 0.18 | 0.18 | 42 | 1001.3 |
| 20260509205248 | 19 | 241 | 11.3 | 16.1 | 0.00 | 0.18 | 0.18 | 44 | 1001.6 |
| 20260509204744 | 19 | 269 | 11.3 | 14.5 | 0.00 | 0.18 | 0.18 | 42 | 1001.5 |
| 20260509204241 | 18 | 295 | 16.1 | 20.9 | 0.00 | 0.18 | 0.18 | 42 | 1001.5 |
| 20260509203737 | 20 | 244 | 8.0 | 12.9 | 0.00 | 0.18 | 0.18 | 43 | 1001.5 |
| 20260509203235 | 19 | 289 | 22.5 | 33.8 | 0.00 | 0.18 | 0.18 | 43 | 1001.5 |
| 20260509202730 | 18 | 282 | 12.9 | 14.5 | 0.00 | 0.18 | 0.18 | 44 | 1001.6 |
| 20260509202227 | 19 | 194 | 12.9 | 22.5 | 0.00 | 0.18 | 0.18 | 44 | 1001.9 |
| 20260509201721 | 18 | 265 | 20.9 | 32.2 | 0.00 | 0.18 | 0.18 | 45 | 1001.6 |
| 20260509201218 | 19 | 263 | 20.9 | 27.4 | 0.00 | 0.18 | 0.18 | 45 | 1001.6 |
| 20260509200715 | 18 | 294 | 14.5 | 27.4 | 0.00 | 0.18 | 0.18 | 47 | 1001.6 |
| 20260509200209 | 18 | 255 | 8.0 | 11.3 | 0.00 | 0.18 | 0.18 | 47 | 1001.6 |
| 20260509195705 | 18 | 273 | 14.5 | 20.9 | 0.00 | 0.18 | 0.18 | 48 | 1001.6 |
| 20260509195201 | 18 | 310 | 9.7 | 16.1 | 0.00 | 0.18 | 0.18 | 48 | 1001.8 |
| 20260509194655 | 17 | 296 | 6.4 | 12.9 | 0.00 | 0.18 | 0.18 | 51 | 1001.8 |
| 20260509194152 | 17 | 247 | 20.9 | 27.4 | 0.00 | 0.18 | 0.18 | 49 | 1002.1 |
| 20260509193648 | 17 | 224 | 19.3 | 29.0 | 0.00 | 0.18 | 0.18 | 50 | 1002.2 |
| 20260509193144 | 17 | 291 | 11.3 | 16.1 | 0.00 | 0.18 | 0.18 | 51 | 1002.5 |
| 20260509192641 | 17 | 214 | 14.5 | 17.7 | 0.00 | 0.18 | 0.18 | 50 | 1002.1 |
| 20260509192135 | 17 | 232 | 16.1 | 20.9 | 0.00 | 0.18 | 0.18 | 52 | 1002.2 |
| 20260509191629 | 17 | 235 | 11.3 | 14.5 | 0.00 | 0.18 | 0.18 | 54 | 1002.3 |
| 20260509191127 | 17 | 317 | 11.3 | 16.1 | 0.00 | 0.18 | 0.18 | 53 | 1002.1 |
| 20260509190623 | 17 | 211 | 3.2 | 8.0 | 0.00 | 0.18 | 0.18 | 52 | 1002.3 |
| 20260509190120 | 17 | 283 | 4.8 | 8.0 | 0.00 | 0.18 | 0.18 | 52 | 1002.1 |
| 20260509185618 | 16 | 205 | 11.3 | 14.5 | 0.00 | 0.18 | 0.18 | 53 | 1002.1 |
| 20260509185114 | 16 | 270 | 8.0 | 11.3 | 0.00 | 0.18 | 0.18 | 54 | 1002.0 |
| 20260509184612 | 16 | 216 | 6.4 | 9.7 | 0.00 | 0.18 | 0.18 | 55 | 1001.9 |
| 20260509184109 | 17 | 299 | 9.7 | 16.1 | 0.00 | 0.18 | 0.18 | 55 | 1002.0 |
| 20260509183604 | 17 | 285 | 9.7 | 14.5 | 0.00 | 0.18 | 0.18 | 54 | 1001.9 |
| 20260509183100 | 17 | 299 | 11.3 | 16.1 | 0.00 | 0.18 | 0.18 | 55 | 1002.0 |
| 20260509182556 | 17 | 327 | 19.3 | 27.4 | 0.00 | 0.18 | 0.18 | 54 | 1001.8 |
| 20260509182053 | 17 | 332 | 6.4 | 11.3 | 0.00 | 0.18 | 0.18 | 56 | 1001.8 |
| 20260509181552 | 17 | 221 | 4.8 | 9.7 | 0.00 | 0.18 | 0.18 | 56 | 1002.0 |
| 20260509181048 | 17 | 334 | 9.7 | 12.9 | 0.00 | 0.18 | 0.18 | 55 | 1001.8 |
| 20260509180544 | 17 | 198 | 8.0 | 12.9 | 0.00 | 0.18 | 0.18 | 54 | 1002.0 |
| 20260509180042 | 17 | 209 | 9.7 | 16.1 | 0.00 | 0.18 | 0.18 | 54 | 1001.9 |
| 20260509175537 | 18 | 217 | 11.3 | 20.9 | 0.00 | 0.18 | 0.18 | 54 | 1001.8 |
| 20260509175035 | 18 | 302 | 16.1 | 22.5 | 0.00 | 0.18 | 0.18 | 53 | 1001.5 |
| 20260509174531 | 18 | 275 | 16.1 | 29.0 | 0.00 | 0.18 | 0.18 | 54 | 1001.6 |
| 20260509174026 | 18 | 256 | 9.7 | 12.9 | 0.00 | 0.18 | 0.18 | 64 | 1001.3 |
| 20260509173520 | 17 | 321 | 8.0 | 12.9 | 0.00 | 0.18 | 0.18 | 69 | 1001.3 |
| 20260509173018 | 16 | 280 | 8.0 | 12.9 | 0.13 | 0.18 | 0.18 | 74 | 1001.2 |
| 20260509172515 | 15 | 292 | 11.3 | 14.5 | 0.13 | 0.18 | 0.18 | 78 | 1001.2 |
| 20260509172010 | 15 | 259 | 8.0 | 12.9 | 0.18 | 0.15 | 0.15 | 82 | 1001.1 |
| 20260509171506 | 15 | 256 | 6.4 | 8.0 | 0.97 | 0.15 | 0.15 | 84 | 1001.2 |
| 20260509171003 | 16 | 231 | 8.0 | 8.0 | 0.79 | 0.13 | 0.13 | 78 | 1001.4 |
| 20260509170458 | 19 | 272 | 12.9 | 16.1 | 0.00 | 0.00 | 0.00 | 55 | 1001.2 |
| 20260509165954 | 20 | 277 | 11.3 | 12.9 | 0.00 | 0.00 | 0.00 | 53 | 1001.0 |
| 20260509165453 | 19 | 212 | 8.0 | 14.5 | 0.00 | 0.00 | 0.00 | 54 | 1001.0 |
| 20260509164949 | 19 | 176 | 8.0 | 11.3 | 0.00 | 0.00 | 0.00 | 55 | 1001.5 |
| 20260509164445 | 19 | 283 | 4.8 | 8.0 | 0.00 | 0.00 | 0.00 | 58 | 1001.2 |
| 20260509163941 | 20 | 261 | 14.5 | 20.9 | 0.00 | 0.00 | 0.00 | 56 | 1001.1 |
| 20260509163439 | 20 | 193 | 8.0 | 11.3 | 0.00 | 0.00 | 0.00 | 57 | 1001.1 |
| 20260509162938 | 19 | 206 | 11.3 | 12.9 | 0.00 | 0.00 | 0.00 | 58 | 1001.1 |
| 20260509162437 | 19 | 269 | 9.7 | 11.3 | 0.00 | 0.00 | 0.00 | 57 | 1001.2 |
| 20260509161932 | 18 | 278 | 6.4 | 11.3 | 0.00 | 0.00 | 0.00 | 59 | 1001.0 |
| 20260509161429 | 18 | 255 | 11.3 | 12.9 | 0.00 | 0.00 | 0.00 | 59 | 1001.3 |
| 20260509160924 | 18 | 208 | 8.0 | 14.5 | 0.00 | 0.00 | 0.00 | 60 | 1001.1 |
| 20260509160420 | 18 | 184 | 14.5 | 20.9 | 0.00 | 0.00 | 0.00 | 60 | 1001.2 |
| 20260509155916 | 19 | 286 | 9.7 | 22.5 | 0.00 | 0.00 | 0.00 | 60 | 1001.4 |
| 20260509155413 | 18 | 96 | 0.0 | 0.0 | 0.00 | 0.00 | 0.00 | 62 | 1001.3 |
| 20260509154909 | 18 | 286 | 4.8 | 9.7 | 0.00 | 0.00 | 0.00 | 62 | 1001.3 |
| 20260509154405 | 18 | 98 | 1.6 | 3.2 | 0.00 | 0.00 | 0.00 | 61 | 1001.1 |
| 20260509153902 | 18 | 203 | 1.6 | 3.2 | 0.00 | 0.00 | 0.00 | 64 | 1001.3 |
| 20260509153359 | 17 | 278 | 6.4 | 8.0 | 0.00 | 0.00 | 0.00 | 63 | 1001.4 |
| 20260509152856 | 17 | 212 | 0.0 | 1.6 | 0.00 | 0.00 | 0.00 | 67 | 1001.8 |
| 20260509152352 | 16 | 235 | 0.0 | 0.0 | 0.00 | 0.00 | 0.00 | 70 | 1001.8 |
| 20260509151850 | 16 | 246 | 3.2 | 8.0 | 0.00 | 0.00 | 0.00 | 71 | 1001.7 |
| 20260509151345 | 16 | 129 | 4.8 | 4.8 | 0.00 | 0.00 | 0.00 | 71 | 1001.8 |
| 20260509150844 | 16 | 217 | 4.8 | 4.8 | 0.00 | 0.00 | 0.00 | 73 | 1001.9 |
| 20260509150341 | 16 | 221 | 0.0 | 0.0 | 0.00 | 0.00 | 0.00 | 74 | 1001.7 |
| 20260509145838 | 16 | 251 | 0.0 | 0.0 | 0.00 | 0.00 | 0.00 | 73 | 1002.0 |
| 20260509145333 | 16 | 91 | 4.8 | 4.8 | 0.00 | 0.00 | 0.00 | 76 | 1001.9 |
| 20260509144830 | 15 | 304 | 0.0 | 0.0 | 0.00 | 0.00 | 0.00 | 78 | 1002.0 |
| 20260509144327 | 15 | 132 | 0.0 | 0.0 | 0.00 | 0.00 | 0.00 | 79 | 1002.1 |
| 20260509143824 | 15 | 315 | 0.0 | 0.0 | 0.00 | 0.00 | 0.00 | 81 | 1002.0 |
| 20260509143322 | 15 | 261 | 1.6 | 1.6 | 0.00 | 0.00 | 0.00 | 80 | 1002.0 |
| 20260509142817 | 14 | 242 | 1.6 | 1.6 | 0.00 | 0.00 | 0.00 | 81 | 1001.9 |
| 20260509142314 | 13 | 263 | 0.0 | 0.0 | 0.00 | 0.00 | 0.00 | 83 | 1002.1 |
| 20260509141809 | 14 | 112 | 1.6 | 4.8 | 0.00 | 0.00 | 0.00 | 83 | 1002.3 |
| 20260509141307 | 14 | 276 | 8.0 | 12.9 | 0.00 | 0.00 | 0.00 | 82 | 1002.1 |
| 20260509140803 | 13 | 91 | 1.6 | 1.6 | 0.00 | 0.00 | 0.00 | 87 | 1002.0 |
| 20260509140300 | 13 | 127 | 0.0 | 0.0 | 0.00 | 0.00 | 0.00 | 88 | 1002.3 |
| 20260509135758 | 13 | 214 | 4.8 | 4.8 | 0.00 | 0.00 | 0.00 | 88 | 1002.5 |
| 20260509135255 | 12 | 77 | 3.2 | 3.2 | 0.00 | 0.00 | 0.00 | 89 | 1002.4 |
| 20260509134752 | 12 | 205 | 0.0 | 0.0 | 0.00 | 0.00 | 0.00 | 93 | 1002.3 |
| 20260509134250 | 12 | 158 | 0.0 | 1.6 | 0.00 | 0.00 | 0.00 | 94 | 1002.7 |
| 20260509133747 | 11 | 231 | 0.0 | 1.6 | 0.00 | 0.00 | 0.00 | 94 | 1002.7 |
| 20260509133243 | 12 | 279 | 0.0 | 1.6 | 0.00 | 0.00 | 0.00 | 94 | 1002.6 |
| 20260509132742 | 12 | 47 | 0.0 | 0.0 | 0.00 | 0.00 | 0.00 | 93 | 1003.5 |
| 20260509132240 | 12 | 93 | 3.2 | 3.2 | 0.00 | 0.00 | 0.00 | 91 | 1003.6 |
| 20260509131737 | 12 | 269 | 0.0 | 0.0 | 0.00 | 0.00 | 0.00 | 89 | 1004.3 |
| 20260509131233 | 12 | 322 | 0.0 | 0.0 | 0.00 | 0.00 | 0.00 | 88 | 1004.3 |
| 20260509130729 | 12 | 356 | 3.2 | 3.2 | 0.00 | 0.00 | 0.00 | 86 | 1004.3 |
| 20260509130225 | 13 | 297 | 8.0 | 11.3 | 0.00 | 0.00 | 0.00 | 84 | 1004.2 |
| 20260509125722 | 13 | 295 | 3.2 | 3.2 | 0.00 | 0.00 | 0.00 | 83 | 1003.5 |
| 20260509125219 | 13 | 223 | 0.0 | 0.0 | 0.00 | 0.00 | 0.00 | 83 | 1002.7 |
| 20260509124715 | 13 | 315 | 1.6 | 4.8 | 0.00 | 0.00 | 0.00 | 83 | 1002.7 |
| 20260509124212 | 13 | 194 | 0.0 | 0.0 | 0.00 | 0.00 | 0.00 | 82 | 1002.9 |
| 20260509123710 | 13 | 209 | 0.0 | 0.0 | 0.00 | 0.00 | 0.00 | 82 | 1002.9 |
| 20260509123207 | 13 | 225 | 1.6 | 3.2 | 0.00 | 0.00 | 0.00 | 82 | 1003.1 |
| 20260509122702 | 13 | 212 | 1.6 | 4.8 | 0.00 | 0.00 | 0.00 | 81 | 1002.8 |
| 20260509122200 | 13 | 235 | 3.2 | 9.7 | 0.00 | 0.00 | 0.00 | 83 | 1003.1 |
| 20260509121656 | 13 | 189 | 1.6 | 1.6 | 0.00 | 0.00 | 0.00 | 84 | 1002.9 |
| 20260509121154 | 12 | 218 | 0.0 | 0.0 | 0.00 | 0.00 | 0.00 | 86 | 1003.0 |
| 20260509120652 | 12 | 150 | 1.6 | 3.2 | 0.00 | 0.00 | 0.00 | 88 | 1003.2 |
| 20260509120150 | 12 | 228 | 0.0 | 0.0 | 0.00 | 0.00 | 0.00 | 89 | 1003.4 |
| 20260509115647 | 11 | 205 | 0.0 | 0.0 | 0.00 | 0.00 | 0.00 | 91 | 1003.3 |
| 20260509115144 | 11 | 215 | 0.0 | 0.0 | 0.00 | 0.00 | 0.00 | 93 | 1003.4 |
| 20260509114642 | 11 | 182 | 0.0 | 0.0 | 0.00 | 0.00 | 0.00 | 93 | 1003.6 |
| 20260509114142 | 11 | 352 | 0.0 | 0.0 | 0.00 | 0.00 | 0.00 | 93 | 1003.7 |
| 20260509113639 | 11 | 65 | 0.0 | 0.0 | 0.00 | 0.00 | 0.00 | 94 | 1003.7 |
| 20260509113136 | 10 | 199 | 1.6 | 1.6 | 0.00 | 0.00 | 0.00 | 95 | 1003.7 |
| 20260509112632 | 10 | 214 | 0.0 | 0.0 | 0.00 | 0.00 | 0.00 | 96 | 1003.9 |
| 20260509112130 | 10 | 246 | 0.0 | 0.0 | 0.00 | 0.00 | 0.00 | 96 | 1003.7 |
| 20260509111627 | 10 | 73 | 1.6 | 3.2 | 0.00 | 0.00 | 0.00 | 96 | 1003.4 |
| 20260509111124 | 10 | 199 | 0.0 | 0.0 | 0.00 | 0.00 | 0.00 | 97 | 1003.6 |
| 20260509110621 | 10 | 234 | 0.0 | 0.0 | 0.00 | 0.00 | 0.00 | 97 | 1003.9 |
| 20260509110118 | 10 | 242 | 0.0 | 0.0 | 0.00 | 0.00 | 0.00 | 98 | 1003.6 |
| 20260509105616 | 9 | 261 | 0.0 | 0.0 | 0.00 | 0.00 | 0.00 | 98 | 1003.9 |
| 20260509105113 | 9 | 286 | 0.0 | 1.6 | 0.00 | 0.00 | 0.00 | 98 | 1003.9 |
| 20260509104610 | 9 | 288 | 0.0 | 0.0 | 0.00 | 0.00 | 0.00 | 99 | 1003.7 |
| 20260509104108 | 9 | 314 | 0.0 | 0.0 | 0.00 | 0.00 | 0.00 | 99 | 1003.6 |